TimeCST,TemperatureF,Dew PointF,Humidity,Sea Level PressureIn,VisibilityMPH,Wind Direction,Wind SpeedMPH,Gust SpeedMPH,PrecipitationIn,Events,Conditions,WindDirDegrees,DateUTC
12:12 AM,6.8,1.4,79,30.18,10.0,Calm,Calm,-,N/A,,Overcast,0,2013-01-01 06:12:00
12:33 AM,6.8,1.4,79,30.18,10.0,Calm,Calm,-,N/A,,Overcast,0,2013-01-01 06:33:00
12:53 AM,6.8,1.4,79,30.18,10.0,SSW,3.5,-,N/A,,Overcast,210,2013-01-01 06:53:00
1:13 AM,6.8,1.4,79,30.18,10.0,SSW,4.6,-,N/A,,Overcast,200,2013-01-01 07:13:00
1:33 AM,6.8,1.4,79,30.18,10.0,SW,4.6,-,N/A,,Overcast,220,2013-01-01 07:33:00
1:54 AM,8.6,3.2,79,30.19,10.0,Calm,Calm,-,N/A,,Overcast,0,2013-01-01 07:54:00
2:13 AM,8.6,3.2,79,30.19,10.0,SSW,3.5,-,N/A,,Overcast,210,2013-01-01 08:13:00
2:33 AM,8.6,3.2,79,30.19,10.0,Calm,Calm,-,N/A,,Overcast,0,2013-01-01 08:33:00
2:54 AM,8.6,3.2,79,30.19,10.0,SW,5.8,-,N/A,,Overcast,230,2013-01-01 08:54:00
3:13 AM,6.8,3.2,85,30.19,10.0,WSW,5.8,-,N/A,,Overcast,240,2013-01-01 09:13:00
3:33 AM,6.8,3.2,85,30.19,10.0,WSW,8.1,-,N/A,,Overcast,240,2013-01-01 09:33:00
3:54 AM,6.8,3.2,85,30.19,10.0,WSW,5.8,-,N/A,,Overcast,240,2013-01-01 09:54:00
4:13 AM,6.8,3.2,85,30.19,10.0,SW,6.9,-,N/A,,Overcast,230,2013-01-01 10:13:00
4:33 AM,8.6,3.2,79,30.18,10.0,SW,5.8,-,N/A,,Overcast,230,2013-01-01 10:33:00
4:53 AM,8.6,3.2,79,30.18,10.0,SW,8.1,-,N/A,,Overcast,220,2013-01-01 10:53:00
5:13 AM,8.6,3.2,79,30.17,10.0,SW,9.2,-,N/A,,Overcast,220,2013-01-01 11:13:00
5:33 AM,8.6,3.2,79,30.17,10.0,SW,6.9,-,N/A,,Overcast,230,2013-01-01 11:33:00
5:53 AM,8.6,3.2,79,30.17,10.0,SW,5.8,-,N/A,,Overcast,220,2013-01-01 11:53:00
6:14 AM,8.6,3.2,79,30.17,10.0,SW,5.8,-,N/A,,Overcast,220,2013-01-01 12:14:00
6:33 AM,8.6,3.2,79,30.17,10.0,SW,3.5,-,N/A,,Overcast,220,2013-01-01 12:33:00
6:53 AM,8.6,3.2,79,30.16,10.0,SW,3.5,-,N/A,,Overcast,230,2013-01-01 12:53:00
7:14 AM,8.6,5.0,85,30.16,10.0,SW,5.8,-,N/A,,Overcast,220,2013-01-01 13:14:00
7:33 AM,8.6,6.8,92,30.16,10.0,SW,3.5,-,N/A,,Overcast,230,2013-01-01 13:33:00
7:53 AM,10.4,6.8,85,30.17,10.0,Calm,Calm,-,N/A,,Overcast,0,2013-01-01 13:53:00
8:13 AM,10.4,6.8,85,30.16,10.0,SSW,3.5,-,N/A,,Overcast,210,2013-01-01 14:13:00
8:33 AM,10.4,6.8,85,30.16,10.0,Calm,Calm,-,N/A,,Overcast,0,2013-01-01 14:33:00
8:53 AM,10.4,8.6,92,30.16,10.0,SW,3.5,-,N/A,,Overcast,220,2013-01-01 14:53:00
9:13 AM,10.4,8.6,92,30.16,10.0,SSW,4.6,-,N/A,,Overcast,210,2013-01-01 15:13:00
9:33 AM,12.2,8.6,85,30.17,10.0,SW,3.5,-,N/A,Snow,Light Snow,230,2013-01-01 15:33:00
9:53 AM,12.2,10.4,92,30.17,7.0,Calm,Calm,-,N/A,Snow,Light Snow,0,2013-01-01 15:53:00
10:13 AM,14.0,10.4,86,30.16,10.0,SSW,4.6,-,N/A,Snow,Light Snow,200,2013-01-01 16:13:00
10:33 AM,15.8,12.2,86,30.16,10.0,SSW,4.6,-,N/A,,Overcast,210,2013-01-01 16:33:00
10:53 AM,15.8,12.2,86,30.15,10.0,SSW,5.8,-,N/A,,Overcast,200,2013-01-01 16:53:00
11:13 AM,15.8,12.2,86,30.14,10.0,South,6.9,-,N/A,,Overcast,190,2013-01-01 17:13:00
11:33 AM,15.8,12.2,86,30.14,10.0,SSW,8.1,-,N/A,,Overcast,210,2013-01-01 17:33:00
11:53 AM,15.8,14.0,93,30.14,7.0,SW,8.1,-,N/A,,Overcast,220,2013-01-01 17:53:00
12:13 PM,17.6,15.8,93,30.13,4.0,SW,10.4,-,N/A,,Overcast,220,2013-01-01 18:13:00
12:33 PM,15.8,14.0,93,30.12,3.0,SSW,11.5,-,N/A,,Overcast,210,2013-01-01 18:33:00
12:53 PM,15.8,14.0,93,30.11,2.0,SW,12.7,-,N/A,,Overcast,220,2013-01-01 18:53:00
1:13 PM,15.8,15.8,100,30.10,2.0,SW,15.0,-,N/A,,Overcast,220,2013-01-01 19:13:00
1:33 PM,15.8,15.8,100,30.10,2.0,SW,12.7,-,N/A,,Overcast,220,2013-01-01 19:33:00
1:53 PM,17.6,15.8,93,30.09,1.8,SW,13.8,-,N/A,,Overcast,230,2013-01-01 19:53:00
2:13 PM,17.6,15.8,93,30.08,1.8,SW,12.7,-,N/A,,Overcast,220,2013-01-01 20:13:00
2:33 PM,17.6,17.6,100,30.07,1.5,SW,15.0,-,N/A,,Overcast,230,2013-01-01 20:33:00
2:53 PM,17.6,17.6,100,30.07,0.8,SW,12.7,-,N/A,,Overcast,230,2013-01-01 20:53:00
3:13 PM,19.4,17.6,93,30.07,1.0,SW,11.5,-,N/A,,Overcast,230,2013-01-01 21:13:00
3:34 PM,19.4,17.6,93,30.07,1.2,WSW,11.5,-,N/A,,Overcast,240,2013-01-01 21:34:00
3:53 PM,19.4,17.6,93,30.07,2.5,WSW,11.5,-,N/A,,Overcast,240,2013-01-01 21:53:00
4:13 PM,19.4,17.6,93,30.06,3.0,SW,11.5,-,N/A,,Overcast,230,2013-01-01 22:13:00
4:33 PM,19.4,17.6,93,30.06,4.0,SW,11.5,-,N/A,,Overcast,230,2013-01-01 22:33:00
4:53 PM,19.4,17.6,93,30.05,4.0,SW,12.7,-,N/A,,Overcast,230,2013-01-01 22:53:00
5:13 PM,19.4,17.6,93,30.05,4.0,SW,12.7,-,N/A,,Overcast,230,2013-01-01 23:13:00
5:33 PM,19.4,17.6,93,30.04,5.0,SW,11.5,-,N/A,,Overcast,230,2013-01-01 23:33:00
5:54 PM,19.4,17.6,93,30.03,5.0,SW,11.5,-,N/A,,Overcast,220,2013-01-01 23:54:00
6:13 PM,19.4,17.6,93,30.03,5.0,SW,10.4,-,N/A,,Overcast,230,2013-01-02 00:13:00
6:33 PM,19.4,17.6,93,30.03,4.0,SW,9.2,-,N/A,,Overcast,230,2013-01-02 00:33:00
6:53 PM,19.4,17.6,93,30.03,4.0,SW,10.4,-,N/A,,Overcast,230,2013-01-02 00:53:00
7:13 PM,19.4,17.6,93,30.02,4.0,SW,11.5,-,N/A,,Overcast,230,2013-01-02 01:13:00
7:33 PM,19.4,17.6,93,30.01,4.0,SW,11.5,-,N/A,,Overcast,230,2013-01-02 01:33:00
7:53 PM,19.4,17.6,93,30.01,4.0,SW,10.4,-,N/A,,Overcast,230,2013-01-02 01:53:00
8:13 PM,19.4,17.6,93,30.01,3.0,SW,10.4,-,N/A,,Overcast,230,2013-01-02 02:13:00
8:34 PM,19.4,17.6,93,30.00,3.0,SW,10.4,-,N/A,,Overcast,230,2013-01-02 02:34:00
8:53 PM,19.4,17.6,93,30.00,3.0,SW,11.5,-,N/A,,Overcast,230,2013-01-02 02:53:00
9:13 PM,19.4,17.6,93,29.99,3.0,SW,11.5,-,N/A,,Overcast,230,2013-01-02 03:13:00
9:34 PM,19.4,17.6,93,29.98,2.0,SW,10.4,-,N/A,,Overcast,230,2013-01-02 03:34:00
9:53 PM,19.4,17.6,93,29.98,1.8,SW,8.1,-,N/A,,Overcast,230,2013-01-02 03:53:00
10:13 PM,19.4,17.6,93,29.97,1.2,SW,10.4,-,N/A,,Overcast,220,2013-01-02 04:13:00
10:34 PM,17.6,17.6,100,29.98,0.8,SW,10.4,-,N/A,,Overcast,220,2013-01-02 04:34:00
10:53 PM,17.6,15.8,93,29.97,1.2,SW,6.9,-,N/A,,Overcast,220,2013-01-02 04:53:00
11:13 PM,17.6,15.8,93,29.97,0.8,SW,6.9,-,N/A,,Overcast,220,2013-01-02 05:13:00
11:34 PM,17.6,15.8,93,29.96,0.5,SW,8.1,-,N/A,Fog,Light Freezing Fog,220,2013-01-02 05:34:00
11:53 PM,15.8,15.8,100,29.96,0.2,SW,6.9,-,N/A,Fog,Light Freezing Fog,220,2013-01-02 05:53:00